When you browse on this site, cookies collect data to enhance your experience and personalize the content and advertising you see.
Visit our Privacy Policy to learn more. By continuing to use the site, you agree to this use of cookies and data.
  • In Hungary
  • List of Countries
  • For 7 days
  • Water Temperature
  • Satellite Maps
  • Weather Map
  • News
  • Weather Widgets
  • user-avatar
    Login

    Hourly Weather Telehany

    Today, 18 January, Friday

    Time Temperature Precipitation Wind Pressure Humidity
    00:00 -1°C° 0.1 mm 4 mps 738 mmHg 94%
    01:00 -1°C° 0.1 mm 4 mps 738 mmHg 94%
    02:00 -1°C° 0.1 mm 4 mps 738 mmHg 95%
    03:00 -1°C° 0.3 mm 4 mps 738 mmHg 95%
    04:00 -1°C° 0.3 mm 4 mps 738 mmHg 95%
    05:00 -1°C° 0.3 mm 4 mps 738 mmHg 95%
    06:00 -1°C° 0 mm 4 mps 738 mmHg 94%
    07:00 -1°C° 0 mm 4 mps 737 mmHg 94%
    08:00 -1°C° 0 mm 4 mps 737 mmHg 93%
    09:00 -1°C° 0 mm 5 mps 737 mmHg 92%
    10:00 -1°C° 0 mm 5 mps 738 mmHg 91%
    11:00 -1°C° 0 mm 6 mps 738 mmHg 91%
    12:00 -2°C° 0 mm 6 mps 738 mmHg 89%
    13:00 -2°C° 0 mm 6 mps 739 mmHg 87%
    14:00 -2°C° 0 mm 6 mps 739 mmHg 85%
    15:00 -3°C° 0.1 mm 6 mps 740 mmHg 84%
    16:00 -4°C° 0.1 mm 6 mps 741 mmHg 83%
    17:00 -4°C° 0.1 mm 6 mps 742 mmHg 82%
    18:00 -5°C° 0 mm 5 mps 743 mmHg 83%
    19:00 -5°C° 0 mm 4 mps 744 mmHg 84%
    20:00 -5°C° 0 mm 3 mps 744 mmHg 86%
    21:00 -5°C° 0 mm 3 mps 745 mmHg 86%
    22:00 -5°C° 0 mm 3 mps 746 mmHg 86%
    23:00 -5°C° 0 mm 4 mps 746 mmHg 87%

    Tomorrow, 19 January, Saturday

    Time Temperature Precipitation Wind Pressure Humidity
    00:00 -5°C° 0 mm 4 mps 747 mmHg 87%
    01:00 -5°C° 0 mm 4 mps 747 mmHg 88%
    02:00 -5°C° 0 mm 4 mps 748 mmHg 88%
    03:00 -5°C° 0 mm 4 mps 748 mmHg 88%
    04:00 -7°C° 0 mm 4 mps 748 mmHg 88%
    05:00 -7°C° 0 mm 4 mps 748 mmHg 88%
    06:00 -7°C° 0 mm 4 mps 749 mmHg 89%
    07:00 -7°C° 0 mm 4 mps 749 mmHg 89%
    08:00 -7°C° 0 mm 4 mps 749 mmHg 89%
    09:00 -7°C° 0 mm 4 mps 750 mmHg 87%
    10:00 -5°C° 0 mm 4 mps 750 mmHg 86%
    11:00 -5°C° 0 mm 4 mps 750 mmHg 85%
    12:00 -4°C° 0 mm 4 mps 750 mmHg 84%
    13:00 -4°C° 0 mm 4 mps 751 mmHg 84%
    14:00 -3°C° 0 mm 4 mps 751 mmHg 84%
    15:00 -4°C° 0 mm 4 mps 751 mmHg 86%
    16:00 -5°C° 0 mm 3 mps 751 mmHg 89%
    17:00 -5°C° 0 mm 3 mps 751 mmHg 91%
    18:00 -5°C° 0 mm 3 mps 751 mmHg 92%
    19:00 -6°C° 0 mm 3 mps 751 mmHg 93%
    20:00 -6°C° 0 mm 3 mps 751 mmHg 93%
    21:00 -6°C° 0 mm 3 mps 751 mmHg 93%
    22:00 -6°C° 0 mm 3 mps 751 mmHg 93%
    23:00 -6°C° 0 mm 3 mps 751 mmHg 93%

    Day after tomorrow, 20 January, Sunday

    Time Temperature Precipitation Wind Pressure Humidity
    00:00 -6°C° 0 mm 3 mps 751 mmHg 93%
    01:00 -7°C° 0 mm 3 mps 751 mmHg 93%
    02:00 -7°C° 0 mm 3 mps 751 mmHg 93%
    03:00 -7°C° 0 mm 3 mps 751 mmHg 93%
    04:00 -7°C° 0 mm 3 mps 750 mmHg 93%
    05:00 -6°C° 0 mm 2 mps 750 mmHg 93%
    06:00 -7°C° 0 mm 2 mps 750 mmHg 93%
    07:00 -7°C° 0 mm 2 mps 750 mmHg 92%
    08:00 -7°C° 0 mm 2 mps 750 mmHg 92%
    09:00 -6°C° 0 mm 2 mps 750 mmHg 89%
    10:00 -6°C° 0 mm 2 mps 749 mmHg 87%
    11:00 -5°C° 0 mm 2 mps 749 mmHg 84%
    12:00 -5°C° 0 mm 2 mps 749 mmHg 83%
    13:00 -5°C° 0 mm 2 mps 748 mmHg 82%
    14:00 -4°C° 0 mm 2 mps 748 mmHg 81%
    15:00 -5°C° 0 mm 2 mps 748 mmHg 84%
    16:00 -6°C° 0 mm 2 mps 747 mmHg 87%
    17:00 -6°C° 0 mm 2 mps 747 mmHg 90%
    18:00 -6°C° 0 mm 2 mps 747 mmHg 91%
    19:00 -7°C° 0 mm 2 mps 747 mmHg 92%
    20:00 -7°C° 0 mm 2 mps 747 mmHg 92%
    21:00 -7°C° 0 mm 2 mps 747 mmHg 92%
    22:00 -7°C° 0 mm 2 mps 747 mmHg 92%
    23:00 -7°C° 0 mm 2 mps 747 mmHg 92%

    21 January, Monday

    Time Temperature Precipitation Wind Pressure Humidity
    00:00 -6°C° 0.2 mm 2 mps 747 mmHg 93%
    01:00 -6°C° 0.2 mm 2 mps 748 mmHg 94%
    02:00 -5°C° 0.2 mm 2 mps 748 mmHg 95%
    03:00 -6°C° 0.1 mm 2 mps 748 mmHg 94%
    04:00 -7°C° 0.1 mm 3 mps 748 mmHg 94%
    05:00 -8°C° 0.1 mm 3 mps 748 mmHg 93%
    06:00 -8°C° 0 mm 3 mps 749 mmHg 92%
    07:00 -8°C° 0 mm 3 mps 750 mmHg 91%
    08:00 -9°C° 0 mm 3 mps 750 mmHg 91%
    09:00 -8°C° 0 mm 3 mps 751 mmHg 88%
    10:00 -8°C° 0 mm 3 mps 751 mmHg 86%
    11:00 -7°C° 0 mm 3 mps 752 mmHg 84%
    12:00 -7°C° 0 mm 3 mps 752 mmHg 82%
    13:00 -6°C° 0 mm 3 mps 752 mmHg 79%
    14:00 -6°C° 0 mm 3 mps 752 mmHg 77%
    15:00 -6°C° 0 mm 3 mps 752 mmHg 80%
    16:00 -7°C° 0 mm 3 mps 753 mmHg 83%
    17:00 -6°C° 0 mm 2 mps 753 mmHg 87%
    18:00 -7°C° 0 mm 2 mps 753 mmHg 88%
    19:00 -7°C° 0 mm 2 mps 753 mmHg 89%
    20:00 -7°C° 0 mm 2 mps 753 mmHg 90%
    21:00 -7°C° 0 mm 2 mps 753 mmHg 89%
    22:00 -7°C° 0 mm 2 mps 753 mmHg 89%
    23:00 -7°C° 0 mm 2 mps 753 mmHg 89%

    22 January, Tuesday

    Time Temperature Precipitation Wind Pressure Humidity
    00:00 -7°C° 0 mm 2 mps 753 mmHg 89%
    01:00 -7°C° 0 mm 2 mps 753 mmHg 89%
    02:00 -8°C° 0 mm 3 mps 752 mmHg 88%
    03:00 -9°C° 0 mm 3 mps 752 mmHg 89%
    04:00 -9°C° 0 mm 3 mps 751 mmHg 90%
    05:00 -9°C° 0 mm 3 mps 751 mmHg 90%
    06:00 -9°C° 0 mm 3 mps 751 mmHg 91%
    07:00 -9°C° 0 mm 3 mps 751 mmHg 91%
    08:00 -9°C° 0 mm 3 mps 750 mmHg 92%
    09:00 -9°C° 0 mm 4 mps 750 mmHg 90%
    10:00 -9°C° 0 mm 4 mps 750 mmHg 88%
    11:00 -8°C° 0 mm 4 mps 750 mmHg 87%
    12:00 -8°C° 0 mm 4 mps 749 mmHg 85%
    13:00 -8°C° 0 mm 4 mps 749 mmHg 82%
    14:00 -6°C° 0 mm 3 mps 749 mmHg 80%
    15:00 -7°C° 0 mm 3 mps 748 mmHg 83%
    16:00 -8°C° 0 mm 3 mps 748 mmHg 85%
    17:00 -7°C° 0 mm 2 mps 747 mmHg 88%
    18:00 -8°C° 0 mm 2 mps 747 mmHg 89%
    19:00 -8°C° 0 mm 2 mps 747 mmHg 91%
    20:00 -9°C° 0 mm 2 mps 746 mmHg 92%
    21:00 -9°C° 0 mm 2 mps 746 mmHg 93%
    22:00 -9°C° 0 mm 2 mps 746 mmHg 93%
    23:00 -10°C° 0 mm 2 mps 745 mmHg 93%

    23 January, Wednesday

    Time Temperature Precipitation Wind Pressure Humidity
    00:00 -10°C° 0 mm 2 mps 745 mmHg 93%
    01:00 -10°C° 0 mm 2 mps 745 mmHg 94%
    02:00 -12°C° 0 mm 3 mps 744 mmHg 94%
    03:00 -12°C° 0 mm 3 mps 744 mmHg 94%
    04:00 -12°C° 0 mm 3 mps 744 mmHg 95%
    05:00 -12°C° 0 mm 3 mps 743 mmHg 95%
    06:00 -12°C° 0 mm 3 mps 743 mmHg 95%
    07:00 -10°C° 0 mm 3 mps 743 mmHg 94%
    08:00 -11°C° 0 mm 4 mps 742 mmHg 94%
    09:00 -10°C° 0 mm 4 mps 742 mmHg 93%
    10:00 -10°C° 0 mm 4 mps 742 mmHg 92%
    11:00 -9°C° 0 mm 4 mps 742 mmHg 91%
    12:00 -9°C° 0 mm 4 mps 742 mmHg 91%
    13:00 -8°C° 0 mm 4 mps 741 mmHg 90%
    14:00 -8°C° 0 mm 4 mps 741 mmHg 90%
    15:00 -8°C° 0.1 mm 5 mps 741 mmHg 91%
    16:00 -8°C° 0.1 mm 5 mps 740 mmHg 91%
    17:00 -8°C° 0.1 mm 5 mps 740 mmHg 92%
    18:00 -8°C° 0.2 mm 5 mps 740 mmHg 92%
    19:00 -7°C° 0.2 mm 5 mps 740 mmHg 92%
    20:00 -7°C° 0.2 mm 5 mps 740 mmHg 92%
    21:00 -7°C° 0.2 mm 5 mps 740 mmHg 93%
    22:00 -7°C° 0.2 mm 5 mps 740 mmHg 93%
    23:00 -7°C° 0.2 mm 5 mps 740 mmHg 93%
    Show more